DW7601 San Vito IT current weather conditions

sailwx.info

Wind from 180 at 1 knots gusting 2

Air temperature 16.7° C
Dewpoint 12.8° C

Last reported at 2018-May-23 01:01 UTC.
Time now 2018-May-23 01:20 UTC

Location: N 39°27' E 009°32'.
View on Google Maps.

See reports from other nearby stations

  
Tides and Currents Weather Stations Pressure Air Temp Water Temp Dewpoint Dewpoint Depression Visibility Wind Speed Wind Dir Waves Ship Positions
date/time (UTC)wind fromknots sea level pressurealtimeterstation pressurevisibilityair tempwater tempwave heightnotes
2018-May-23 01:01 180 1 gusting 2 16.7
2018-May-23 00:51 292 0 gusting 1 16.7
2018-May-23 00:41 248 1 gusting 2 16.7
2018-May-23 00:31 338 0 gusting 2 16.7
2018-May-23 00:21 112 16.7
2018-May-23 00:11 068 16.7
2018-May-23 00:01 315 16.7
2018-May-22 23:51 022 16.7
2018-May-22 23:41 338 0 gusting 1 17.2
2018-May-22 23:31 022 0 gusting 1 17.2
2018-May-22 23:21 338 0 gusting 2 17.2
2018-May-22 23:11 315 1 gusting 4 17.8
2018-May-22 23:01 338 0 gusting 4 17.8
2018-May-22 22:51 338 0 gusting 2 17.8
2018-May-22 22:41 338 1 gusting 4 17.8
2018-May-22 22:31 17.8
2018-May-22 22:21 17.8
2018-May-22 22:11 17.8
2018-May-22 22:01 338 17.8
2018-May-22 21:51 315 0 gusting 2 18.3
2018-May-22 21:41 292 1 gusting 6 18.3
2018-May-22 21:31 015 0 gusting 5 18.3
2018-May-22 21:21 292 1 gusting 4 18.3
2018-May-22 21:11 315 1 gusting 2 18.3
2018-May-22 21:01 022 2 gusting 7 18.3
2018-May-22 20:51 18.3
2018-May-22 20:41 248 1 gusting 2 18.3
2018-May-22 20:31 292 1 gusting 4 18.3
2018-May-22 20:21 315 1 gusting 6 18.9
2018-May-22 20:11 315 1 gusting 2 18.9
2018-May-22 20:01 248 1 gusting 5 18.9
2018-May-22 19:51 315 1 gusting 4 18.9
2018-May-22 19:41 19.4
2018-May-22 19:31 270 1 gusting 2 19.4
2018-May-22 19:21 270 0 gusting 2 19.4
2018-May-22 19:11 292 0 gusting 4 20.0
2018-May-22 19:01 248 0 gusting 4 20.0
2018-May-22 18:51 270 0 gusting 1 20.6
2018-May-22 18:41 315 1 gusting 4 20.6
2018-May-22 18:31 270 1 gusting 4 20.6
2018-May-22 18:21 292 2 gusting 5 21.1
2018-May-22 18:11 21.7
2018-May-22 18:01 270 1 gusting 5 21.7
2018-May-22 17:51 315 1 gusting 4 21.7
2018-May-22 17:41 022 0 gusting 1 22.2
2018-May-22 17:31 292 0 gusting 4 22.2
2018-May-22 17:21 270 0 gusting 2 21.7
2018-May-22 17:11 315 1 gusting 2 21.7
2018-May-22 17:01 338 0 gusting 2 21.7
2018-May-22 16:51 090 1 gusting 1 22.2
2018-May-22 16:41 315 1 gusting 2 22.2
2018-May-22 16:31 315 1 gusting 5 22.8
2018-May-22 16:21 248 1 gusting 2 23.3
2018-May-22 16:11 315 1 gusting 5 23.3
2018-May-22 16:01 248 1 gusting 2 23.3
2018-May-22 15:51 315 1 gusting 5 23.9
2018-May-22 15:41 248 1 gusting 4 25.0
2018-May-22 15:31 270 2 gusting 5 24.4
2018-May-22 15:21 270 2 gusting 4 25.6
2018-May-22 15:11 315 4 gusting 6 26.1
2018-May-22 15:01 225 4 gusting 7 26.1
2018-May-22 14:51 292 2 gusting 6 25.6
2018-May-22 14:41 315 2 gusting 5 25.0
2018-May-22 14:31 292 1 gusting 2 25.6
2018-May-22 14:21 338 1 gusting 5 25.6
2018-May-22 14:11 248 1 gusting 5 26.1
2018-May-22 13:51 292 1 gusting 4 26.1
2018-May-22 13:41 338 1 gusting 4 25.6
2018-May-22 13:31 338 1 gusting 4 26.1
2018-May-22 13:21 270 1 gusting 5 26.1
2018-May-22 13:11 225 1 gusting 6 26.1
2018-May-22 13:01 270 2 gusting 5 26.1
2018-May-22 12:51 270 1 gusting 4 25.6
2018-May-22 12:41 248 1 gusting 4 25.6
2018-May-22 12:31 248 0 gusting 4 26.1
2018-May-22 12:21 338 0 gusting 2 26.7
2018-May-22 12:11 045 1 gusting 2 26.7
2018-May-22 12:01 248 1 gusting 6 26.1
2018-May-22 11:51 022 0 gusting 4 26.7
2018-May-22 11:41 022 0 gusting 5 26.7
2018-May-22 11:31 202 1 gusting 5 27.2
2018-May-22 11:21 315 0 gusting 1 27.2
2018-May-22 11:11 315 26.1
2018-May-22 11:01 180 0 gusting 1 25.6
2018-May-22 10:51 112 0 gusting 1 26.1
2018-May-22 10:41 068 0 gusting 1 25.6
2018-May-22 10:31 090 1 gusting 2 26.1
2018-May-22 10:21 135 1 gusting 6 26.7
2018-May-22 10:11 270 0 gusting 2 26.1
2018-May-22 10:01 270 1 gusting 4 26.1
2018-May-22 09:51 158 0 gusting 2 26.7
2018-May-22 09:41 292 0 gusting 1 26.1
2018-May-22 09:31 112 0 gusting 4 26.1
2018-May-22 09:21 338 0 gusting 4 25.0
2018-May-22 09:11 292 0 gusting 2 23.9
2018-May-22 09:01 315 1 gusting 5 24.4
2018-May-22 08:51 270 0 gusting 1 25.0
2018-May-22 08:41 338 0 gusting 1 25.0
2018-May-22 08:31 045 0 gusting 1 24.4
2018-May-22 08:21 090 23.9
2018-May-22 08:11 225 23.9
2018-May-22 08:01 202 23.3
2018-May-22 07:51 135 21.7
2018-May-22 07:41 112 21.1
2018-May-22 07:31 045 20.6
2018-May-22 07:21 20.0
2018-May-22 07:11 19.4
2018-May-22 07:01 022 18.3
2018-May-22 06:51 112 17.8
2018-May-22 06:41 135 16.7
2018-May-22 06:31 315 16.7
2018-May-22 06:21 068 16.1
2018-May-22 06:11 068 0 gusting 4 15.6
2018-May-22 06:01 045 0 gusting 4 15.0
2018-May-22 05:51 14.4
2018-May-22 05:41 13.9
2018-May-22 05:31 315 13.9
2018-May-22 05:21 292 13.9
2018-May-22 05:11 248 13.3
2018-May-22 05:01 158 13.3
2018-May-22 04:51 248 13.3
2018-May-22 04:41 112 13.3
2018-May-22 04:31 292 13.3
2018-May-22 04:21 045 13.3
2018-May-22 04:11 135 13.9
2018-May-22 04:01 315 0 gusting 2 13.9
2018-May-22 03:51 225 1 gusting 2 13.3
2018-May-22 03:41 270 0 gusting 2 13.3
2018-May-22 03:31 292 13.3
2018-May-22 03:21 338 13.3
2018-May-22 03:11 248 13.3
2018-May-22 03:01 248 13.3
2018-May-22 02:51 202 13.3
2018-May-22 02:41 045 13.9
2018-May-22 02:31 315 13.9
2018-May-22 02:21 225 13.9
2018-May-22 02:11 248 13.9
2018-May-22 02:01 090 13.9
2018-May-22 01:51 292 14.4
2018-May-22 01:41 202 14.4
2018-May-22 01:31 270 0 gusting 1 14.4
2018-May-22 01:21 292 0 gusting 1 14.4
2018-May-22 01:11 292 0 gusting 1 14.4
2018-May-22 01:01 270 0 gusting 2 14.4
2018-May-22 00:51 315 1 gusting 4 14.4
2018-May-22 00:41 270 14.4
2018-May-22 00:31 022 14.4
2018-May-22 00:21 315 14.4
2018-May-22 00:11 225 14.4
2018-May-22 00:01 112 14.4
2018-May-21 23:51 225 15.0
2018-May-21 23:41 180 15.0
2018-May-21 23:31 045 15.0
2018-May-21 23:21 135 15.0
2018-May-21 23:11 15.0
2018-May-21 23:01 068 15.6
2018-May-21 22:51 270 15.6
2018-May-21 22:41 135 15.6
2018-May-21 22:31 158 15.6
2018-May-21 22:21 135 16.1
2018-May-21 22:11 315 16.1
2018-May-21 22:01 315 16.1
2018-May-21 21:51 270 16.1
2018-May-21 21:41 248 16.1
2018-May-21 21:31 270 16.7
2018-May-21 21:21 045 16.7
2018-May-21 21:11 248 16.7
2018-May-21 21:01 270 16.7
2018-May-21 20:51 112 16.7
2018-May-21 20:41 338 16.7
2018-May-21 20:31 022 16.7
2018-May-21 20:21 16.7
2018-May-21 20:11 045 16.7
2018-May-21 20:01 315 16.7
2018-May-21 19:51 022 16.7
2018-May-21 19:41 248 16.7
2018-May-21 19:31 045 16.7
2018-May-21 19:21 270 16.7
2018-May-21 19:11 315 16.7
2018-May-21 19:01 045 16.7
2018-May-21 18:51 022 17.2
2018-May-21 18:41 022 17.2
2018-May-21 18:31 17.2
2018-May-21 18:21 022 17.2
2018-May-21 18:11 135 17.2
2018-May-21 18:01 248 17.2
2018-May-21 17:51 090 17.8
2018-May-21 17:41 112 17.8
2018-May-21 17:31 112 0 gusting 1 17.8
2018-May-21 17:21 17.8
2018-May-21 17:11 112 0 gusting 0 17.8
2018-May-21 17:01 090 18.3
2018-May-21 16:51 135 18.3
2018-May-21 16:41 090 18.3
2018-May-21 16:31 068 18.3
2018-May-21 16:21 090 18.9
2018-May-21 16:11 248 18.9
2018-May-21 16:01 158 18.9
2018-May-21 15:51 090 18.9
2018-May-21 15:41 068 18.9
2018-May-21 15:31 090 18.9
2018-May-21 15:21 022 18.9
2018-May-21 15:11 292 19.4
2018-May-21 15:01 068 19.4
2018-May-21 14:51 112 19.4
2018-May-21 14:41 338 19.4
2018-May-21 14:31 180 18.9
2018-May-21 14:21 225 18.9
2018-May-21 14:11 068 18.9
2018-May-21 14:01 045 18.9
2018-May-21 13:51 248 17.8
2018-May-21 13:41 225 17.8
2018-May-21 13:31 135 17.8
2018-May-21 13:21 315 17.2
2018-May-21 13:11 248 17.2
2018-May-21 13:01 248 17.2
2018-May-21 12:51 248 17.2
2018-May-21 12:41 225 17.2
2018-May-21 12:31 270 17.2
2018-May-21 12:21 158 17.2
2018-May-21 12:11 225 17.2
2018-May-21 12:01 225 17.2
2018-May-21 11:51 315 17.2
2018-May-21 11:41 180 17.8
2018-May-21 11:31 022 17.8
2018-May-21 11:21 225 17.8
2018-May-21 11:11 17.8
2018-May-21 11:01 112 17.8
2018-May-21 10:51 112 17.8
2018-May-21 10:41 135 17.2
2018-May-21 10:31 045 17.2
2018-May-21 10:21 045 17.2
2018-May-21 10:11 090 16.7
2018-May-21 10:01 338 16.7
2018-May-21 09:51 292 16.7
2018-May-21 09:41 158 16.7
2018-May-21 09:31 202 16.7
2018-May-21 09:21 315 16.7
2018-May-21 09:11 158 16.7
2018-May-21 09:01 180 16.7
2018-May-21 08:51 112 16.7
2018-May-21 08:41 180 16.7
2018-May-21 08:31 248 16.7
2018-May-21 08:21 045 16.7
2018-May-21 08:11 045 16.1
2018-May-21 08:01 270 16.1
2018-May-21 07:51 045 16.1
2018-May-21 07:41 158 16.1
2018-May-21 07:31 315 16.1
2018-May-21 07:21 045 16.1
2018-May-21 07:11 022 16.1
2018-May-21 07:01 022 16.1
2018-May-21 06:51 112 16.1
2018-May-21 06:41 045 16.1
2018-May-21 06:31 022 16.1
2018-May-21 06:21 270 16.1
2018-May-21 06:11 045 0 gusting 1 16.1
2018-May-21 06:01 135 16.1
2018-May-21 05:51 068 0 gusting 1 15.6
2018-May-21 05:41 315 15.6
2018-May-21 05:31 315 15.6
2018-May-21 05:21 180 15.6
2018-May-21 05:11 315 15.6
2018-May-21 05:01 338 15.6
2018-May-21 04:51 248 15.6
2018-May-21 04:41 068 15.6
2018-May-21 04:31 248 15.0
2018-May-21 04:21 225 15.0
2018-May-21 04:11 180 15.6
2018-May-21 04:01 248 15.6
2018-May-21 03:51 068 15.6
2018-May-21 03:41 270 15.6
2018-May-21 03:31 248 15.0
2018-May-21 03:21 045 15.0
2018-May-21 03:11 068 15.6
2018-May-21 03:01 202 15.0
2018-May-21 02:51 292 15.0
2018-May-21 02:41 248 15.0
2018-May-21 02:31 270 15.6
2018-May-21 02:21 315 15.6
2018-May-21 02:11 225 15.6
2018-May-21 02:01 068 15.6
2018-May-21 01:51 338 15.6
2018-May-21 01:41 045 15.6
2018-May-21 01:31 338 15.6
2018-May-21 01:21 225 15.6
2018-May-21 01:11 225 15.6
2018-May-21 01:01 315 15.6